Weather reports worldwide

Advertisment
Tulloch Bridge, United Kingdom (3047): temperature & dewpoint: 18.05.2018 07:00:00 - 24.05.2018 07:00:00 (BST)Tulloch Bridge, United Kingdom (3047): temperature -20cm & temperature -100cm: 18.05.2018 07:00:00 - 24.05.2018 07:00:00 (BST)Tulloch Bridge, United Kingdom (3047): wind speed & gusts: 18.05.2018 07:00:00 - 24.05.2018 07:00:00 (BST)Tulloch Bridge, United Kingdom (3047): wind direction: 18.05.2018 07:00:00 - 24.05.2018 07:00:00 (BST)Tulloch Bridge, United Kingdom (3047): reduced air pressure: 18.05.2018 07:00:00 - 24.05.2018 07:00:00 (BST)Tulloch Bridge, United Kingdom (3047): visibility: 18.05.2018 07:00:00 - 24.05.2018 07:00:00 (BST)Tulloch Bridge, United Kingdom (3047): precipitation: 18.05.2018 07:00:00 - 24.05.2018 07:00:00 (BST)
Date & Time tt [°C] td [°C] tt -20cm [°C] tt -100cm [°C] ff [km/h] ff [kn] fx [km/h] fx [kn] dd ppp [hPa] vv [km] rr [mm]
24.05.2018 07:00:00 7,4 5,3 - - 13 7 - - S 1027,2 50 0,0
24.05.2018 06:00:00 7,0 5,3 - - 15 8 - - SSW 1027,3 40 0,0
24.05.2018 05:00:00 7,0 5,3 - - 9 5 - - SW 1027,5 35 0,0
24.05.2018 04:00:00 6,5 4,6 - - 5 3 - - S 1027,9 35 0,0
24.05.2018 03:00:00 9,3 5,6 - - 8 4 - - SSW 1027,9 50 0,0
24.05.2018 02:00:00 9,1 6,4 - - 11 6 - - S 1027,8 50 0,0
24.05.2018 01:00:00 8,9 5,4 - - 5 3 - - E 1027,9 40 0,0
24.05.2018 00:00:00 12,1 7,6 - - 15 8 - - S 1027,4 50 0,0
23.05.2018 23:00:00 12,5 7,5 - - 11 6 - - S 1027,1 45 0,0
23.05.2018 22:00:00 14,1 7,2 - - 8 4 - - SE 1026,8 50 0,0
23.05.2018 21:00:00 15,9 7,4 - - 9 5 - - SW 1026,2 40 0,0
23.05.2018 20:00:00 17,5 7,4 - - 9 5 - - SW 1025,9 50 0,0
23.05.2018 19:00:00 19,0 7,3 - - 9 5 - - SSW 1025,6 45 0,0
23.05.2018 18:00:00 19,3 7,5 - - 9 5 - - SW 1025,7 29 0,0
23.05.2018 17:00:00 19,3 9,5 - - 13 7 - - S 1026,1 40 0,0
23.05.2018 16:00:00 19,0 9,6 - - 13 7 - - S 1026,4 50 0,0
23.05.2018 15:00:00 18,1 9,0 - - 15 8 - - S 1026,8 40 0,0
23.05.2018 14:00:00 16,5 8,4 - - 16 9 - - S 1027,2 45 0,0
23.05.2018 13:00:00 15,6 8,2 - - 16 9 - - S 1027,5 35 0,0
23.05.2018 12:00:00 14,2 7,7 - - 16 9 - - S 1028,0 35 0,0
23.05.2018 11:00:00 12,5 7,0 - - 18 10 - - S 1028,3 35 0,0
23.05.2018 10:00:00 12,4 7,4 11,7 10,4 15 8 - - S 1028,3 30 0,0
23.05.2018 09:00:00 11,0 7,0 - - 13 7 - - S 1028,3 35 0,0
23.05.2018 08:00:00 10,4 6,8 - - 4 2 - - SSE 1028,1 35 0,0
23.05.2018 07:00:00 9,3 7,3 - - 4 2 - - NE 1027,9 30 0,0
23.05.2018 06:00:00 5,3 5,0 - - 2 1 - - ESE 1027,9 9 0,0
23.05.2018 05:00:00 5,4 4,7 - - 4 2 - - S 1027,8 20 0,0
23.05.2018 04:00:00 7,7 6,0 - - 8 4 - - SE 1027,4 40 0,0
23.05.2018 03:00:00 8,3 6,1 - - 2 1 - - ESE 1027,4 50 0,0
23.05.2018 02:00:00 8,5 6,0 - - 2 1 - - W 1027,3 45 0,0
23.05.2018 01:00:00 8,6 6,1 - - 4 2 - - NNE 1027,2 45 0,0
23.05.2018 00:00:00 8,8 6,1 - - 2 1 - - NW 1027,2 50 0,0
22.05.2018 23:00:00 9,2 6,5 - - 2 1 - - SSW 1027,1 50 0,0
22.05.2018 22:00:00 9,5 6,6 - - 8 4 - - NNE 1026,7 50 0,0
22.05.2018 21:00:00 10,1 6,8 - - 11 6 - - E 1026,0 45 0,0
22.05.2018 20:00:00 10,5 6,8 - - 8 4 - - E 1025,8 45 0,0
22.05.2018 19:00:00 11,1 6,8 - - 9 5 - - E 1025,6 45 0,0
22.05.2018 18:00:00 11,4 6,9 - - 13 7 - - ENE 1025,7 50 0,0
22.05.2018 17:00:00 11,8 6,8 - - 11 6 - - ENE 1025,7 45 0,0
22.05.2018 16:00:00 11,8 6,6 - - 8 4 - - E 1025,8 40 0,0
22.05.2018 15:00:00 11,8 6,6 - - 8 4 - - E 1026,0 45 0,0
22.05.2018 14:00:00 11,4 6,3 - - 11 6 - - ENE 1025,9 45 0,0
22.05.2018 13:00:00 10,3 6,2 - - 11 6 - - ENE 1025,9 50 0,0
22.05.2018 12:00:00 9,6 6,0 - - 11 6 - - ENE 1026,0 50 0,0
22.05.2018 11:00:00 9,0 5,7 - - 9 5 - - ENE 1026,3 50 0,0
22.05.2018 10:00:00 8,0 5,4 11,5 10,2 9 5 - - E 1026,8 50 0,0
22.05.2018 09:00:00 7,1 4,9 - - 11 6 - - E 1026,7 50 0,0
22.05.2018 08:00:00 6,6 4,5 - - 11 6 - - E 1026,7 50 0,0
22.05.2018 07:00:00 6,1 4,2 - - 8 4 - - E 1026,6 50 0,0
22.05.2018 06:00:00 5,8 4,3 - - 5 3 - - E 1026,4 50 0,0
22.05.2018 05:00:00 5,6 4,3 - - 5 3 - - E 1026,1 50 0,0
22.05.2018 04:00:00 5,3 4,6 - - 2 1 - - W 1026,1 14 0,2
22.05.2018 03:00:00 5,5 4,2 - - 4 2 - - SE 1025,9 50 0,0
22.05.2018 02:00:00 5,2 4,0 - - 4 2 - - NNW 1025,9 29 0,6
22.05.2018 01:00:00 5,4 4,1 - - 5 3 - - SE 1025,8 12 1,4
22.05.2018 00:00:00 6,0 5,0 - - 2 1 - - N 1025,4 17 1,8
21.05.2018 23:00:00 6,6 5,3 - - 4 2 - - E 1024,9 8 0,8
21.05.2018 22:00:00 7,2 6,0 - - 4 2 - - E 1024,5 12 0,8
21.05.2018 21:00:00 7,8 6,8 - - 4 2 - - ENE 1023,8 10 0,4
21.05.2018 20:00:00 7,9 6,8 - - 13 7 - - WNW 1023,0 5 0,2
21.05.2018 19:00:00 8,3 7,4 - - 15 8 - - W 1022,4 3,7 0,2
21.05.2018 18:00:00 8,3 7,6 - - 15 8 - - W 1021,6 3,6 0,2
21.05.2018 17:00:00 8,4 8,0 - - 11 6 - - NNW 1021,2 6 0,0
21.05.2018 16:00:00 9,1 8,3 - - 16 9 - - WNW 1020,6 5 0,4
21.05.2018 15:00:00 10,3 9,7 - - 11 6 - - NW 1020,0 4,4 0,0
21.05.2018 14:00:00 10,5 9,9 - - 5 3 - - SSW 1019,3 11 0,0
21.05.2018 13:00:00 10,2 9,7 - - 9 5 - - S 1019,0 6 0,4
21.05.2018 12:00:00 10,3 9,6 - - 8 4 - - S 1018,8 5 0,4
21.05.2018 11:00:00 10,6 9,0 - - 4 2 - - W 1018,4 3,9 0,0
21.05.2018 10:00:00 10,7 9,2 12,4 10,2 9 5 - - NE 1018,3 13 0,2
21.05.2018 09:00:00 10,9 8,7 - - 4 2 - - SE 1017,9 40 0,0
21.05.2018 08:00:00 10,8 8,6 - - 5 3 - - SSW 1017,7 45 0,0
21.05.2018 07:00:00 10,5 9,2 - - 9 5 - - ESE 1017,7 50 0,4
21.05.2018 06:00:00 10,5 9,3 - - 11 6 - - SSE 1017,2 11 0,2
21.05.2018 05:00:00 10,5 9,7 - - 4 2 - - ENE 1017,1 10 0,6
21.05.2018 04:00:00 10,6 9,5 - - 9 5 - - NNW 1017,2 10 0,2
21.05.2018 03:00:00 10,8 9,1 - - 2 1 - - W 1017,6 9 0,2
21.05.2018 02:00:00 11,9 8,6 - - 5 3 - - NNE 1017,7 21 0,0
21.05.2018 01:00:00 12,1 8,6 - - 11 6 - - S 1017,8 40 0,0
21.05.2018 00:00:00 12,4 8,6 - - 11 6 - - S 1017,8 45 0,0
20.05.2018 23:00:00 12,4 9,2 - - 8 4 - - SW 1017,6 50 0,0
20.05.2018 22:00:00 12,4 9,0 - - 11 6 - - SW 1017,6 45 0,0
20.05.2018 21:00:00 12,4 9,2 - - 18 10 - - S 1017,3 50 0,0
20.05.2018 20:00:00 12,6 9,5 - - 15 8 - - S 1017,1 50 0,0
20.05.2018 19:00:00 13,0 9,7 - - 11 6 - - S 1017,1 50 0,0
20.05.2018 18:00:00 12,8 9,9 - - 9 5 - - SSW 1017,2 30 0,0
20.05.2018 17:00:00 12,6 10,4 - - 21 11 - - S 1016,7 8 0,0
20.05.2018 16:00:00 13,1 10,1 - - 24 13 48 26 S 1016,6 24 0,0
20.05.2018 15:00:00 14,4 10,2 - - 21 11 - - S 1016,5 30 0,0
20.05.2018 14:00:00 14,2 9,8 - - 21 11 - - S 1016,5 28 0,0
20.05.2018 13:00:00 14,0 9,6 - - 29 16 55 30 S 1016,1 11 0,0
20.05.2018 12:00:00 15,0 9,7 - - 29 16 52 28 S 1015,6 40 0,0
20.05.2018 11:00:00 14,3 9,2 - - 24 13 52 28 S 1015,7 27 0,0
20.05.2018 10:00:00 13,2 8,6 12,0 10,0 31 17 52 28 S 1016,0 25 0,0
20.05.2018 09:00:00 12,4 7,9 - - 13 7 46 25 SW 1016,6 40 0,0
20.05.2018 08:00:00 12,7 7,3 - - 22 12 - - S 1016,5 50 0,0
20.05.2018 07:00:00 12,0 6,6 - - 11 6 - - SW 1016,1 45 0,0
20.05.2018 06:00:00 11,8 6,6 - - 15 8 - - SSW 1015,7 21 0,0
20.05.2018 05:00:00 11,7 6,5 - - 9 5 - - SSW 1015,9 40 0,0
20.05.2018 04:00:00 11,6 6,5 - - 16 9 - - SSW 1016,0 40 0,0
20.05.2018 03:00:00 13,0 6,3 - - 22 12 - - SSE 1015,5 35 0,0
20.05.2018 02:00:00 12,5 6,6 - - 16 9 - - SSW 1016,0 50 0,0
20.05.2018 01:00:00 12,7 6,7 - - 18 10 - - S 1016,2 45 0,0
20.05.2018 00:00:00 12,7 6,5 - - 18 10 - - SSW 1016,4 40 0,0
19.05.2018 23:00:00 13,3 6,0 - - 18 10 - - S 1016,4 45 0,0
19.05.2018 22:00:00 13,3 4,8 - - 18 10 - - S 1016,9 50 0,0
19.05.2018 21:00:00 13,8 3,9 - - 15 8 - - S 1016,9 45 0,0
19.05.2018 20:00:00 14,3 4,9 - - 9 5 - - S 1017,3 50 0,0
19.05.2018 19:00:00 14,9 5,5 - - 13 7 - - S 1017,1 30 0,0
19.05.2018 18:00:00 16,1 6,1 - - 18 10 - - S 1017,6 15 0,0
19.05.2018 17:00:00 16,9 5,9 - - 24 13 - - S 1017,8 35 0,0
19.05.2018 16:00:00 17,9 6,1 - - 26 14 52 28 SSW 1018,1 45 0,0
19.05.2018 15:00:00 17,6 6,4 - - 26 14 - - S 1018,2 50 0,0
19.05.2018 14:00:00 18,0 6,6 - - 22 12 - - S 1018,8 35 0,0
19.05.2018 13:00:00 16,7 6,7 - - 21 11 - - S 1019,3 40 0,0
19.05.2018 12:00:00 16,3 6,8 - - 18 10 - - S 1020,0 40 0,0
19.05.2018 11:00:00 16,1 7,5 - - 16 9 - - S 1020,7 27 0,0
19.05.2018 10:00:00 14,3 7,7 11,7 9,7 11 6 - - S 1021,5 35 0,0
19.05.2018 09:00:00 12,4 7,3 - - 15 8 - - S 1022,3 29 0,0
19.05.2018 08:00:00 11,4 7,6 - - 5 3 - - S 1022,3 40 0,0
19.05.2018 07:00:00 9,8 7,5 - - 0 0 - - N 1022,6 40 0,0
19.05.2018 06:00:00 9,6 7,5 - - 11 6 - - S 1022,6 45 0,0
19.05.2018 05:00:00 7,9 6,1 - - 5 3 - - SSW 1022,6 45 0,0
19.05.2018 04:00:00 8,7 6,9 - - 5 3 - - SSE 1022,9 40 0,0
19.05.2018 03:00:00 8,0 6,0 - - 5 3 - - NE 1023,6 45 0,0
19.05.2018 02:00:00 8,4 6,4 - - 4 2 - - S 1023,8 50 0,0
19.05.2018 01:00:00 8,3 5,3 - - 4 2 - - SE 1024,0 45 0,0
19.05.2018 00:00:00 9,3 7,0 - - 4 2 - - SSE 1024,1 45 0,0
18.05.2018 23:00:00 9,3 6,1 - - 2 1 - - S 1024,3 45 0,0
18.05.2018 22:00:00 11,3 6,7 - - 5 3 - - WSW 1024,2 45 0,0
18.05.2018 21:00:00 12,7 6,9 - - 4 2 - - ENE 1023,7 50 0,0
18.05.2018 20:00:00 13,2 6,6 - - 5 3 - - WNW 1023,8 40 0,0
18.05.2018 19:00:00 14,4 6,8 - - 9 5 - - SSW 1023,6 40 0,0
18.05.2018 18:00:00 15,0 6,2 - - 9 5 - - WSW 1023,4 45 0,0
18.05.2018 17:00:00 16,2 5,9 - - 11 6 - - SW 1023,3 30 0,0
18.05.2018 16:00:00 15,3 7,0 - - 8 4 - - W 1023,3 35 0,0
18.05.2018 15:00:00 13,5 5,5 - - 16 9 - - WNW 1023,6 50 0,0
18.05.2018 14:00:00 12,6 4,6 - - 18 10 - - NW 1024,2 45 0,0
18.05.2018 13:00:00 13,5 3,8 - - 13 7 - - WNW 1024,1 40 0,0
18.05.2018 12:00:00 14,6 1,7 - - 15 8 - - S 1024,0 35 0,0
18.05.2018 11:00:00 13,8 2,3 - - 13 7 - - S 1024,3 35 0,0
18.05.2018 10:00:00 12,0 3,0 11,4 9,7 16 9 - - S 1024,7 50 0,0
18.05.2018 09:00:00 10,7 3,4 - - 15 8 - - S 1025,2 50 0,0
18.05.2018 08:00:00 9,4 3,2 - - 11 6 - - S 1025,5 45 0,0
18.05.2018 07:00:00 7,6 3,1 - - 5 3 - - SSE 1025,7 45 0,0

tt = temperature
td = dewpoint
tt -20cm = temperature -20cm
tt -100cm = temperature -100cm
ff = wind speed
fx = gusts
dd = wind direction
ppp = reduced air pressure
vv = visibility
rr = precipitation

Next stations